Regional Weather Roundup
Issued by NWS

Home | Current Version | Previous Version | Text Only | Print | Product List | Glossary Off
Versions: 1 2 3 4 5 6 7 8 9 10 11 12 13 14 15 16 17 18 19 20 21 22 23 24 25 26 27

000
ASUS45 KBOU 071107
RWRCO

WEATHER ROUNDUP FOR COLORADO
NATIONAL WEATHER SERVICE DENVER/BOULDER CO
400 AM MST WED DEC 07 2016

NOTE: "FAIR" INDICATES FEW OR NO CLOUDS BELOW 12000 FEET WITH NO
SIGNIFICANT WEATHER AND/OR OBSTRUCTIONS TO VISIBILITY.

COZ001>005-013-030-031-071200-
...NORTHWEST COLORADO...

CITY           SKY/WX    TMP DP  RH WIND       PRES   REMARKS
CRAIG          CLOUDY    14   9  80 CALM      29.95R
HAYDEN         MOCLDY    12   7  79 CALM      29.92R
MEEKER         CLOUDY    11   7  84 NE5       29.93R WCI   3
MOUNT WERNER   NOT AVBL
STEAMBOAT SPGS CLOUDY    12   8  84 CALM      29.90R
WALDEN           N/A      3  -2  78 N6        29.82R WCI  -8
$$

COZ006>008-011-071200-
...WEST CENTRAL VALLEYS...

CITY           SKY/WX    TMP DP  RH WIND       PRES   REMARKS
GRAND JUNCTION FAIR      13  13 100 CALM      29.98R
MONTROSE       CLOUDY    24  22  91 SE6       29.97S WCI  17
EAGLE          CLOUDY    18  11  74 SW8       29.91R WCI   8
RIFLE          FLURRIES  22  19  89 W8        29.96R WCI  12
DELTA          FAIR      25  21  83 CALM      29.97R
NUCLA          NOT AVBL
$$

COZ017>023-064>068-071200-
...SOUTHWEST COLORADO...

CITY           SKY/WX    TMP DP  RH WIND       PRES   REMARKS
DURANGO        FAIR      26  17  68 SW14      29.85R WCI  14
CORTEZ         FLURRIES  26  22  84 E6        29.94R WCI  19
PAGOSA SPRINGS FAIR      29  18  64 SW10      29.82R WCI  19
TELLURIDE      LGT SNOW  14  11  90 W10       29.88S WCI   1
WOLF CREEK PAS LGT SNOW  10   9  92 SW23G48   29.75R VSB 1   WCI -10
$$

COZ009-010-012-014-032>034-037-058>063-071200-
...CENTRAL COLORADO...

CITY           SKY/WX    TMP DP  RH WIND       PRES   REMARKS
ASPEN          LGT SNOW  15  11  83 N12       29.83R FOG     WCI   2
BUENA VISTA    CLOUDY    19   8  63 NW10      29.77R WCI   7
COPPER MTN     CLOUDY     5  -4  66 MISG      29.64R
BERTHOUD PASS  SNOW      -6 -17  59 NW30G40   29.57R VSB 1/2 WCI -34
COTTONWOOD PAS LGT SNOW  16   5  62 W12G20    29.71R WCI   3
GUNNISON       FAIR      18  13  80 N6        29.84R WCI  10
KREMMLING      FAIR      19   5  53 W6        29.86R WCI  11
LEADVILLE      LGT SNOW   6  -1  73 NW10      29.72R WCI  -9
MONARCH PASS   SNOW       3   0  85 W32G41    29.74R VSB 1/2 WCI -22
SALIDA         CLOUDY    13   9  85 E6        29.87S WCI   4
SUNLIGHT       CLOUDY     1   0  92 W9        29.80R WCI -14
WILKERSON PASS CLOUDY     3   0  85 NW10G21   29.68R WCI -12
$$

COZ069>075-071200-
...SAN LUIS VALLEY/SANGRE DE CRISTO MOUNTAINS...

CITY           SKY/WX    TMP DP  RH WIND       PRES   REMARKS
ALAMOSA        FAIR      28  17  63 W17G25    29.76R WCI  16
LA VETA PASS   CLOUDY    19  14  79 NE25G43   29.67F WCI   2
SAGUACHE       FAIR      21   9  58 NW17      29.79R WCI   7
$$

COZ035-036-038>040-071200-
...NORTHERN COLORADO FRONT RANGE...

CITY           SKY/WX    TMP DP  RH WIND       PRES   REMARKS
DENVER INTL AP FLURRIES  15  12  88 NE6       29.94R WCI   6
DMNS CITY PARK   N/A     16  13  88 E6G15     29.96R WCI   8
AURORA         CLOUDY    13  11  92 NE3       29.93R
FRONT RANGE AP CLOUDY    18  16  93 NE5       29.94R WCI  11
ERIE MUNI ARPT LGT SNOW  18  16  92 E3        29.97R
BOULDER MUN AP LGT SNOW  18  18 100 N3        29.95R
CENTENNIAL     CLOUDY    14  10  84 NE3       29.91R
BROOMFIELD     LGT SNOW  18  16  93 E6        29.93R WCI   9
FORT COLLINS   CLOUDY    16  12  86 N17       30.00R VSB 1   WCI   0
LONGMONT       LGT SNOW  20  17  87 E5        29.99R WCI  14
$$

COZ041-046-047-076>085-087-088-071200-
...PIKES PEAK/PALMER DIVIDE AND SOUTHERN FOOTHILLS...

CITY           SKY/WX    TMP DP  RH WIND       PRES   REMARKS
COLO. SPRINGS  MOCLDY    12   7  80 NE9       29.88R WCI   0
A. F. ACADEMY  CLOUDY    12   6  77 N7        29.85R WCI   1
SCHRIEVER AFB  NOT AVBL
ELLICOTT       LGT SNOW N/A N/A N/A E15         N/A
FALCON         MOCLDY    11   6  81 N7        29.86R WCI   0
FORT CARSON    FLURRIES  15  10  81 N6        29.89R WCI   6
LIMON          MOCLDY    13  11  92 E8        29.93R WCI   2
MONUMENT HILL  CLOUDY     9   5  85 CALM      29.86R
TRINIDAD       MOCLDY    14   0  53 NW7       29.88R WCI   4
$$

COZ042>045-048>051-090-091-071200-
...NORTHEAST COLORADO...

CITY           SKY/WX    TMP DP  RH WIND       PRES   REMARKS
GREELEY ARPT   LGT SNOW  18  14  86 NE15      30.03R FOG     WCI   3
AKRON          CLOUDY    13   9  84 NE10      29.99R WCI   0
BURLINGTON     LGT SNOW  21  14  74 E20       29.97F WCI   6
WRAY           NOT AVBL
STERLING       FLURRIES  16  12  86 NE10      30.06R WCI   3
HOLYOKE        FLURRIES  18  12  79 NE15      30.07R WCI   3
FORT MORGAN    LGT SNOW  14  11  88 NE13      30.03R WCI   0
$$

COZ086-089-092>099-071200-
...SOUTHEAST COLORADO...

CITY           SKY/WX    TMP DP  RH WIND       PRES   REMARKS
PUEBLO         CLOUDY    20   7  57 N9        29.93R WCI   9
LA JUNTA       CLOUDY    18   5  57 NE9       29.88S WCI   7
LAMAR          MOCLDY    12   4  70 E10       29.92R WCI  -1
SPRINGFIELD      N/A     10   6  84 CALM      29.88R
$$




USA.gov is the U.S. government's official web portal to all federal, state and local government web resources and services.